DW3930 Weather Reports


time (UTC)temp
C
wind
direction
speed
KPH
gust
KPH
rain 1hr
cm
rain 24hr
cm
rain mn
cm
humidity
%
barometer
mb
20260510190511 13 1 8.0 25.7 0.00 0.46 0.00 34 1017.9
20260510190503 13 1 8.0 17.7 0.00 0.46 0.00 50 1351.3
20260510190011 13 354 8.0 25.7 0.00 0.46 0.00 34 1017.9
20260510190003 13 354 9.7 25.7 0.00 0.46 0.00 50 1351.0
20260510185510 13 340 6.4 24.1 0.00 0.46 0.00 34 1017.8
20260510185503 13 341 8.0 24.1 0.00 0.46 0.00 50 1350.9
20260510185011 14 342 6.4 19.3 0.00 0.46 0.00 34 1017.6
20260510185003 14 343 6.4 19.3 0.00 0.46 0.00 50 1350.9
20260510184545 14 336 6.4 25.7 0.00 0.46 0.00 33 1017.6
20260510184503 14 337 6.4 17.7 0.00 0.46 0.00 49 1350.7
20260510184100 14 328 8.0 25.7 0.00 0.46 0.00 34 1017.6
20260510184003 14 329 8.0 25.7 0.00 0.46 0.00 50 1350.9
20260510183512 14 327 8.0 24.1 0.00 0.46 0.00 34 1017.6
20260510183503 14 329 8.0 24.1 0.00 0.46 0.00 50 1350.7
20260510183024 14 309 9.7 17.7 0.00 0.46 0.00 50 1350.7
20260510183012 14 310 8.0 27.4 0.00 0.46 0.00 35 1017.6
20260510182511 14 319 11.3 27.4 0.00 0.46 0.00 35 1017.5
20260510182503 14 319 9.7 27.4 0.00 0.46 0.00 52 1350.7
20260510182011 13 331 8.0 19.3 0.00 0.46 0.00 34 1017.5
20260510182003 13 332 9.7 20.9 0.00 0.46 0.00 50 1350.5
20260510181511 13 323 8.0 24.1 0.00 0.46 0.00 37 1017.5
20260510181504 13 324 9.7 19.3 0.00 0.46 0.00 30 1350.7
20260510181011 13 316 8.0 24.1 0.00 0.46 0.00 35 1017.5
20260510181004 13 315 9.7 24.1 0.00 0.46 0.00 51 1350.6
20260510180511 13 316 8.0 24.1 0.00 0.46 0.00 35 1017.5
20260510180504 13 315 9.7 25.7 0.00 0.46 0.00 51 1350.7
20260510180012 13 325 8.0 19.3 0.00 0.46 0.00 37 1017.4
20260510180005 13 323 8.0 19.3 0.00 0.46 0.00 52 1350.5
20260510175512 13 324 6.4 19.3 0.00 0.46 0.00 37 1017.4
20260510175504 13 322 8.0 19.3 0.00 0.46 0.00 52 1350.5
20260510175026 13 337 8.0 20.9 0.00 0.46 0.00 52 1350.5
20260510175011 13 340 6.4 24.1 0.00 0.46 0.00 37 1017.4
20260510174526 13 359 8.0 25.7 0.00 0.46 0.00 52 1350.5
20260510174510 13 359 8.0 25.7 0.00 0.46 0.00 37 1017.5
20260510174011 13 356 8.0 25.7 0.00 0.46 0.00 37 1017.5
20260510174004 13 356 8.0 30.6 0.00 0.46 0.00 52 1350.6
20260510173511 13 14 8.0 25.7 0.00 0.46 0.00 38 1017.5
20260510173505 13 15 8.0 19.3 0.00 0.46 0.00 31 1350.6
20260510173011 13 26 8.0 25.7 0.00 0.46 0.00 35 1017.6
20260510173004 13 26 9.7 25.7 0.00 0.46 0.00 50 1350.7
20260510172511 13 17 8.0 24.1 0.00 0.46 0.00 35 1017.5
20260510172504 13 15 8.0 25.7 0.00 0.46 0.00 51 1350.7
20260510172004 13 360 8.0 20.9 0.00 0.46 0.00 53 1350.8
20260510171510 12 342 11.3 20.9 0.00 0.46 0.00 38 1017.5
20260510171505 12 339 9.7 20.9 0.00 0.46 0.00 52 1350.7
20260510171011 12 327 11.3 20.9 0.00 0.46 0.00 35 1017.5
20260510171004 12 327 9.7 25.7 0.00 0.46 0.00 51 1350.7
20260510170511 12 347 8.0 19.3 0.00 0.46 0.00 37 1017.5
20260510170504 12 348 8.0 19.3 0.00 0.46 0.00 52 1350.7
20260510170011 12 1 8.0 19.3 0.00 0.46 0.00 38 1017.6
20260510170004 12 360 8.0 19.3 0.00 0.46 0.00 31 1350.7
20260510165510 12 1 8.0 20.9 0.00 0.46 0.00 39 1017.4
20260510165504 12 360 8.0 20.9 0.00 0.46 0.00 55 1350.6
20260510165011 12 1 8.0 20.9 0.00 0.46 0.00 37 1017.5
20260510165004 12 360 9.7 24.1 0.00 0.46 0.00 52 1350.5
20260510164525 12 360 9.7 20.9 0.00 0.46 0.00 53 1350.6
20260510164510 12 1 8.0 24.1 0.00 0.46 0.00 38 1017.4
20260510164011 12 1 11.3 27.4 0.00 0.46 0.00 39 1017.3
20260510164004 12 360 11.3 20.9 0.00 0.46 0.00 55 1350.5
20260510163510 12 1 11.3 27.4 0.00 0.46 0.00 37 1017.2
20260510163504 12 360 11.3 30.6 0.00 0.46 0.00 30 1350.4
20260510163025 12 360 11.3 24.1 0.00 0.46 0.00 52 1350.2
20260510163012 12 1 11.3 30.6 0.00 0.46 0.00 37 1017.1
20260510162511 12 1 11.3 30.6 0.00 0.46 0.00 38 1017.2
20260510162504 12 360 9.7 30.6 0.00 0.46 0.00 52 1350.3
20260510162004 12 360 8.0 12.9 0.00 0.46 0.00 55 1350.1
20260510161511 12 1 11.3 24.1 0.00 0.46 0.00 41 1017.1
20260510161504 12 360 11.3 20.9 0.00 0.46 0.00 56 1350.0
20260510161005 12 360 9.7 30.6 0.00 0.46 0.00 52 1350.1
20260510160525 12 360 8.0 19.3 0.00 0.46 0.00 55 1349.9
20260510160513 12 1 8.0 20.9 0.00 0.46 0.00 39 1016.9
20260510160012 12 1 8.0 20.9 0.00 0.46 0.00 38 1016.9
20260510160004 12 360 8.0 20.9 0.00 0.46 0.00 53 1349.9
20260510155525 12 360 8.0 20.9 0.00 0.46 0.00 56 1349.9
20260510155511 12 1 6.4 20.9 0.00 0.46 0.00 41 1016.9
20260510155025 12 360 8.0 19.3 0.00 0.46 0.00 55 1349.8
20260510155011 12 1 8.0 24.1 0.00 0.46 0.00 39 1016.9
20260510154526 12 360 9.7 25.7 0.00 0.46 0.00 53 1349.9
20260510154511 12 1 8.0 24.1 0.00 0.46 0.00 38 1017.0
20260510154025 12 360 8.0 24.1 0.00 0.46 0.00 55 1349.8
20260510154012 12 1 8.0 24.1 0.00 0.46 0.00 38 1016.9
20260510153511 12 1 8.0 24.1 0.00 0.46 0.00 39 1016.8
20260510153505 12 360 9.7 25.7 0.00 0.46 0.00 55 1349.7
20260510153004 12 360 8.0 24.1 0.00 0.46 0.00 34 1349.6
20260510152525 12 360 8.0 19.3 0.00 0.46 0.00 55 1349.7
20260510152511 12 1 8.0 19.3 0.00 0.46 0.00 39 1016.7
20260510152010 11 1 8.0 19.3 0.00 0.46 0.00 39 1016.7
20260510152004 12 360 9.7 19.3 0.00 0.46 0.00 55 1349.6
20260510151511 11 1 11.3 30.6 0.00 0.46 0.00 38 1016.7
20260510151504 12 360 9.7 24.1 0.00 0.46 0.00 53 1349.5
20260510151004 12 358 9.7 30.6 0.00 0.46 0.00 52 1349.5
20260510150511 11 352 8.0 24.1 0.00 0.46 0.00 38 1016.6
20260510150504 12 350 9.7 24.1 0.00 0.46 0.00 53 1349.4
20260510150025 12 353 8.0 20.9 0.00 0.46 0.00 55 1349.3
20260510150011 11 354 8.0 20.9 0.00 0.46 0.00 39 1016.5
20260510145525 12 7 8.0 20.9 0.00 0.46 0.00 56 1349.2
20260510145511 11 11 6.4 20.9 0.00 0.46 0.00 41 1016.4
20260510145011 11 7 6.4 17.7 0.00 0.46 0.00 39 1016.3
20260510145004 12 6 6.4 19.3 0.00 0.46 0.00 55 1349.2
20260510144510 11 348 6.4 12.9 0.00 0.46 0.00 39 1016.4
20260510144504 11 348 6.4 17.7 0.00 0.46 0.00 33 1349.1
20260510144025 11 346 4.8 14.5 0.00 0.46 0.00 57 1348.9
20260510144011 11 346 4.8 12.9 0.00 0.46 0.00 42 1016.3
20260510143525 11 348 4.8 11.3 0.00 0.46 0.00 58 1348.9
20260510143511 11 352 6.4 14.5 0.00 0.46 0.00 43 1016.2
20260510143011 11 346 8.0 20.9 0.00 0.46 0.00 43 1016.2
20260510143004 11 345 6.4 17.7 0.00 0.46 0.00 57 1348.9
20260510142511 11 344 6.4 20.9 0.00 0.46 0.00 45 1016.1
20260510142504 11 346 6.4 20.9 0.00 0.46 0.00 60 1348.7
20260510142011 11 357 6.4 14.5 0.00 0.46 0.00 49 1016.1
20260510142004 11 357 6.4 17.7 0.00 0.46 0.00 62 1348.7
20260510141510 11 7 4.8 14.5 0.00 0.46 0.00 49 1016.0
20260510141504 11 7 4.8 17.7 0.00 0.46 0.00 62 1348.6
20260510141011 11 18 4.8 17.7 0.00 0.46 0.00 50 1015.9
20260510141004 11 18 4.8 11.3 0.00 0.46 0.00 63 1348.5
20260510140510 10 340 6.4 19.3 0.00 0.46 0.00 50 1015.9
20260510140505 10 339 6.4 19.3 0.00 0.46 0.00 63 1348.4
20260510140025 10 316 6.4 19.3 0.00 0.46 0.00 64 1348.4
20260510140011 10 320 6.4 19.3 0.00 0.46 0.00 51 1015.9
20260510135510 10 355 6.4 12.9 0.00 0.46 0.00 51 1015.8
20260510135504 10 358 6.4 12.9 0.00 0.46 0.00 64 1348.3
20260510135025 10 355 6.4 11.3 0.00 0.46 0.00 64 1348.1
20260510135011 10 355 6.4 11.3 0.00 0.46 0.00 51 1015.7
20260510134505 10 339 6.4 11.3 0.00 0.46 0.00 64 1348.0
20260510134011 10 356 8.0 19.3 0.00 0.46 0.00 51 1015.5
20260510134004 10 358 6.4 17.7 0.00 0.46 0.00 64 1347.8
20260510133510 9 12 8.0 19.3 0.00 0.46 0.00 51 1015.4
20260510133504 9 10 8.0 19.3 0.00 0.46 0.00 64 1347.8
20260510133011 9 4 8.0 19.3 0.00 0.46 0.00 51 1015.4
20260510133004 9 1 8.0 20.9 0.00 0.46 0.00 64 1347.7
20260510132510 9 359 6.4 19.3 0.00 0.46 0.00 51 1015.4
20260510132504 9 360 6.4 17.7 0.00 0.46 0.00 64 1347.8
20260510132004 9 7 6.4 19.3 0.00 0.46 0.00 66 1347.6
20260510131512 8 10 8.0 19.3 0.00 0.46 0.00 54 1015.4
20260510131504 8 10 6.4 14.5 0.00 0.46 0.00 67 1347.6
20260510131011 8 16 8.0 20.9 0.00 0.46 0.00 53 1015.3
20260510131004 8 15 9.7 19.3 0.00 0.46 0.00 66 1347.7
20260510130510 8 12 11.3 20.9 0.00 0.46 0.00 54 1015.3
20260510130504 8 11 9.7 20.9 0.00 0.46 0.00 67 1347.6
20260510130011 8 9 8.0 20.9 0.00 0.46 0.00 54 1015.3
20260510130004 8 10 9.7 19.3 0.00 0.46 0.00 67 1347.5
20260510125510 8 12 8.0 20.9 0.00 0.46 0.00 57 1015.2
20260510125504 8 12 9.7 20.9 0.00 0.46 0.00 69 1347.4
20260510125012 8 5 8.0 20.9 0.00 0.46 0.00 57 1015.1
20260510125004 8 6 8.0 25.7 0.00 0.46 0.00 69 1347.4
20260510124510 8 357 8.0 25.7 0.00 0.46 0.00 58 1015.1
20260510124504 8 357 8.0 17.7 0.00 0.46 0.00 70 1347.2
20260510124011 8 357 8.0 25.7 0.00 0.46 0.00 59 1015.1
20260510124004 8 358 9.7 25.7 0.00 0.46 0.00 71 1347.3
20260510123525 7 1 9.7 24.1 0.00 0.46 0.00 71 1347.2
20260510123510 7 2 11.3 20.9 0.00 0.46 0.00 59 1015.0
20260510123011 7 2 8.0 17.7 0.00 0.46 0.00 61 1014.9
20260510123004 7 3 8.0 19.3 0.00 0.46 0.00 72 1347.1
20260510122526 7 360 8.0 19.3 0.00 0.46 0.00 73 1347.0
20260510122511 7 1 8.0 19.3 0.00 0.46 0.00 62 1014.9
20260510122011 7 3 8.0 19.3 0.00 0.46 0.00 63 1014.8
20260510122004 7 2 9.7 19.3 0.00 0.46 0.00 74 1346.9
20260510121510 7 6 6.4 19.3 0.00 0.46 0.00 65 1014.7
20260510121504 7 5 8.0 19.3 0.00 0.46 0.00 75 1346.9
20260510121011 7 6 6.4 14.5 0.00 0.46 0.00 66 1014.7
20260510121004 7 6 6.4 14.5 0.00 0.46 0.00 77 1346.7
20260510120525 6 7 8.0 19.3 0.00 0.46 0.00 77 1346.7
20260510120025 6 8 8.0 25.7 0.00 0.46 0.00 78 1346.6
20260510120011 6 9 8.0 24.1 0.00 0.46 0.00 67 1014.6
20260510115510 6 12 8.0 20.9 0.00 0.46 0.00 67 1014.5
20260510115504 6 11 8.0 20.9 0.00 0.46 0.00 78 1346.7
20260510115004 6 11 8.0 14.5 0.00 0.46 0.00 79 1346.5
20260510114512 5 11 6.4 17.7 0.00 0.46 0.00 70 1014.5
20260510114504 5 10 8.0 14.5 0.00 0.46 0.00 80 1346.5
20260510114025 5 13 6.4 19.3 0.00 0.46 0.00 81 1346.4
20260510114011 5 14 6.4 17.7 0.00 0.46 0.00 71 1014.4
20260510113510 5 15 4.8 12.9 0.00 0.46 0.00 74 1014.3
20260510113504 5 16 4.8 14.5 0.00 0.46 0.00 83 1346.3
20260510113011 5 14 4.8 8.0 0.00 0.46 0.00 75 1014.2
20260510113004 5 14 4.8 11.3 0.00 0.46 0.00 83 1346.1
20260510112510 4 9 4.8 8.0 0.00 0.46 0.00 75 1014.2
20260510112504 4 8 4.8 8.0 0.00 0.46 0.00 84 1346.1
20260510112011 4 8 1.6 8.0 0.00 0.46 0.00 77 1014.1
20260510112004 4 7 3.2 8.0 0.00 0.46 0.00 85 1346.1
20260510111510 3 8 1.6 6.4 0.00 0.46 0.00 77 1014.0
20260510111504 3 7 1.6 6.4 0.00 0.46 0.00 85 1345.8
20260510111011 3 6 1.6 6.4 0.00 0.46 0.00 77 1013.9
20260510111004 3 5 1.6 6.4 0.00 0.46 0.00 85 1345.8
20260510110510 3 10 1.6 11.3 0.00 0.46 0.00 77 1013.9
20260510110504 3 9 3.2 6.4 0.00 0.46 0.00 85 1345.7
20260510110004 2 9 1.6 11.3 0.00 0.46 0.00 85 1345.7
20260510105525 2 2 1.6 6.4 0.00 0.46 0.00 85 1345.6
20260510105511 2 2 1.6 6.4 0.00 0.46 0.00 77 1013.8
20260510105010 2 3 1.6 6.4 0.00 0.46 0.00 78 1013.8
20260510105004 2 3 3.2 6.4 0.00 0.46 0.00 85 1345.7
20260510104511 1 13 1.6 6.4 0.00 0.46 0.00 78 1013.8
20260510104504 2 11 1.6 6.4 0.00 0.46 0.00 86 1345.6
20260510104010 1 18 1.6 6.4 0.00 0.46 0.00 77 1013.7
20260510104004 1 18 1.6 6.4 0.00 0.46 0.00 85 1345.6
20260510103511 1 0 0.0 4.8 0.00 0.46 0.00 77 1013.6
20260510103504 1 19 0.0 4.8 0.00 0.46 0.00 85 1345.4
20260510103010 1 0 0.0 4.8 0.00 0.46 0.00 77 1013.5
20260510103004 1 19 0.0 1.6 0.00 0.46 0.00 85 1345.4
20260510102511 1 0 0.0 4.8 0.00 0.46 0.00 77 1013.3
20260510102504 1 19 0.0 4.8 0.00 0.46 0.00 85 1345.2
20260510102010 1 0 0.0 1.6 0.00 0.46 0.00 77 1013.2
20260510102004 1 19 0.0 1.6 0.00 0.46 0.00 85 1345.1
20260510101511 1 0 0.0 1.6 0.00 0.46 0.00 77 1013.0
20260510101504 1 19 0.0 4.8 0.00 0.46 0.00 85 1344.9
20260510101004 1 0 0.0 0.0 0.00 0.46 0.00 85 1344.8
20260510100511 1 0 0.0 0.0 0.00 0.46 0.00 77 1012.9
20260510100504 1 0 0.0 0.0 0.00 0.46 0.00 85 1344.7
20260510100010 1 0 0.0 0.0 0.00 0.46 0.00 75 1012.8
20260510100004 1 0 0.0 0.0 0.00 0.46 0.00 84 1344.6
20260510095510 1 0 0.0 0.0 0.00 0.46 0.00 75 1012.8
20260510095504 1 0 0.0 0.0 0.00 0.46 0.00 84 1344.6
20260510095011 1 0 0.0 0.0 0.00 0.46 0.00 75 1012.7
20260510095004 1 0 0.0 0.0 0.00 0.46 0.00 84 1344.5
20260510094526 2 0 0.0 0.0 0.00 0.46 0.00 84 1344.4
20260510094510 1 0 0.0 0.0 0.00 0.46 0.00 75 1012.6
20260510094004 2 0 0.0 0.0 0.00 0.46 0.00 84 1344.1
20260510093504 2 0 0.0 0.0 0.00 0.46 0.00 83 1344.0
20260510093010 2 0 0.0 0.0 0.00 0.46 0.00 74 1012.3
20260510093004 2 0 0.0 0.0 0.00 0.46 0.00 83 1343.8
20260510092511 2 0 0.0 0.0 0.00 0.46 0.00 74 1012.1
20260510092504 2 0 0.0 0.0 0.00 0.46 0.00 83 1343.6
20260510092004 2 0 0.0 0.0 0.00 0.46 0.00 83 1343.4
20260510091510 2 0 0.0 0.0 0.00 0.46 0.00 74 1012.0
20260510091504 2 0 0.0 0.0 0.00 0.46 0.00 83 1343.4
20260510091011 2 0 0.0 0.0 0.00 0.46 0.00 74 1011.7
20260510091004 2 0 0.0 0.0 0.00 0.46 0.00 83 1343.1
20260510090510 2 0 0.0 0.0 0.00 0.46 0.00 73 1011.6
20260510090504 2 0 0.0 0.0 0.00 0.46 0.00 82 1343.1
20260510090011 2 0 0.0 0.0 0.00 0.46 0.00 73 1011.5
20260510090004 2 0 0.0 0.0 0.00 0.46 0.00 82 1343.1
20260510085510 2 0 0.0 0.0 0.00 0.46 0.00 73 1011.6
20260510085504 2 0 0.0 0.0 0.00 0.46 0.00 82 1342.9
20260510085011 3 0 0.0 0.0 0.00 0.46 0.00 73 1011.5
20260510085004 3 0 0.0 0.0 0.00 0.46 0.00 82 1342.8
20260510084504 3 0 0.0 0.0 0.00 0.46 0.00 82 1342.7
20260510084011 3 0 0.0 0.0 0.00 0.46 0.00 73 1011.1
20260510084004 3 0 0.0 0.0 0.00 0.46 0.00 81 1342.4
20260510083510 3 0 0.0 0.0 0.00 0.46 0.00 71 1011.0
20260510083504 3 0 0.0 0.0 0.00 0.46 0.00 81 1342.4
20260510083010 3 0 0.0 0.0 0.00 0.46 0.00 71 1011.0
20260510083004 3 0 0.0 0.0 0.00 0.46 0.00 81 1342.2
20260510082511 3 0 0.0 0.0 0.00 0.46 0.00 71 1010.9
20260510082504 3 0 0.0 0.0 0.00 0.46 0.00 81 1342.1
20260510082010 3 0 0.0 0.0 0.00 0.46 0.00 71 1010.8
20260510082004 3 0 0.0 0.0 0.00 0.46 0.00 81 1342.0
20260510081510 3 0 0.0 0.0 0.00 0.46 0.00 71 1010.8
20260510081504 3 0 0.0 0.0 0.00 0.46 0.00 81 1341.9
20260510081004 3 0 0.0 0.0 0.00 0.46 0.00 80 1341.8
20260510080511 4 0 0.0 0.0 0.00 0.46 0.00 70 1010.9
20260510080504 4 0 0.0 0.0 0.00 0.46 0.00 80 1341.9
20260510080010 4 0 0.0 0.0 0.00 0.46 0.00 70 1010.8
20260510080004 4 0 0.0 0.0 0.00 0.46 0.00 80 1341.8
20260510075525 4 0 0.0 0.0 0.00 0.46 0.00 80 1342.0
20260510075011 4 0 0.0 0.0 0.00 0.46 0.00 70 1010.7
20260510075004 4 0 0.0 0.0 0.00 0.46 0.00 80 1341.7
20260510074510 5 0 0.0 0.0 0.00 0.46 0.00 70 1010.6
20260510074504 5 0 0.0 0.0 0.00 0.46 0.00 80 1341.6
20260510074025 5 0 0.0 0.0 0.00 0.46 0.00 79 1341.5
20260510074011 5 0 0.0 0.0 0.00 0.46 0.00 69 1010.5
20260510073510 5 0 0.0 0.0 0.00 0.46 0.00 69 1010.5
20260510073504 5 0 0.0 0.0 0.00 0.46 0.00 79 1341.5
20260510073010 5 0 0.0 0.0 0.00 0.46 0.00 69 1010.5
20260510073005 5 0 0.0 0.0 0.00 0.46 0.00 79 1341.4
20260510072510 5 0 0.0 0.0 0.00 0.46 0.00 69 1010.4
20260510072504 5 0 0.0 0.0 0.00 0.46 0.00 79 1341.3
20260510072004 5 0 0.0 0.0 0.00 0.46 0.00 78 1341.2
20260510071511 5 0 0.0 0.0 0.00 0.46 0.00 67 1010.3
20260510071504 5 0 0.0 0.0 0.00 0.46 0.00 78 1341.1
20260510071010 5 0 0.0 0.0 0.00 0.46 0.00 67 1010.3
20260510071004 5 0 0.0 0.0 0.00 0.46 0.00 78 1341.2
20260510070504 5 0 0.0 0.0 0.00 0.46 0.00 77 1341.2
20260510070004 6 21 0.0 0.0 0.00 0.46 0.00 77 1341.1
20260510065510 6 0 0.0 4.8 0.00 0.46 0.00 66 1010.3
20260510065504 6 21 0.0 4.8 0.00 0.46 0.00 77 1341.1
20260510065011 6 0 0.0 4.8 0.00 0.46 0.00 66 1010.2
20260510065004 6 22 1.6 4.8 0.00 0.46 0.00 77 1341.1
20260510064504 6 22 1.6 4.8 0.00 0.46 0.00 77 1341.0
20260510064010 6 0 0.0 6.4 0.00 0.46 0.00 66 1010.1
20260510064004 6 22 1.6 6.4 0.00 0.46 0.00 77 1340.9
20260510063510 6 0 0.0 6.4 0.00 0.46 0.00 65 1010.0
20260510063504 6 21 1.6 6.4 0.00 0.46 0.00 75 1340.8
20260510063025 6 20 0.0 4.8 0.00 0.46 0.00 75 1340.7
20260510063010 6 0 0.0 6.4 0.00 0.46 0.00 65 1010.0
20260510062511 6 0 0.0 4.8 0.00 0.46 0.00 65 1010.0
20260510062504 6 19 0.0 0.0 0.00 0.46 0.00 75 1340.9
20260510062010 6 19 1.6 4.8 0.00 0.46 0.00 65 1010.1
20260510062004 6 19 1.6 4.8 0.00 0.46 0.00 75 1340.9
20260510061510 6 19 1.6 8.0 0.00 0.46 0.00 65 1010.1
20260510061504 7 19 1.6 4.8 0.00 0.46 0.00 74 1341.0
20260510061010 7 18 1.6 11.3 0.00 0.46 0.00 63 1010.0
20260510061003 7 18 3.2 8.0 0.00 0.46 0.00 74 1340.9
20260510060510 7 14 4.8 11.3 0.00 0.46 0.00 63 1010.0
20260510060504 7 13 4.8 11.3 0.00 0.46 0.00 74 1340.9
20260510060011 7 15 4.8 12.9 0.00 0.46 0.00 63 1010.0
20260510060004 7 15 4.8 11.3 0.00 0.46 0.00 74 1340.8
20260510055510 7 24 4.8 12.9 0.00 0.46 0.00 63 1009.9
20260510055504 7 24 4.8 12.9 0.00 0.46 0.00 74 1340.8
20260510055010 7 27 4.8 11.3 0.00 0.46 0.00 62 1009.7
20260510055004 7 26 4.8 11.3 0.00 0.46 0.00 73 1340.7
20260510054510 7 22 4.8 12.9 0.00 0.46 0.00 62 1009.7
20260510054504 7 22 4.8 11.3 0.00 0.46 0.00 73 1340.5
20260510054010 7 21 6.4 12.9 0.00 0.46 0.00 62 1009.6
20260510054003 7 21 6.4 14.5 0.00 0.46 0.00 73 1340.4
20260510053510 7 24 6.4 12.9 0.00 0.46 0.00 61 1009.6
20260510053504 7 23 6.4 17.7 0.00 0.46 0.00 72 1340.4
20260510053010 7 24 4.8 12.9 0.00 0.46 0.00 61 1009.5
20260510053004 7 23 4.8 12.9 0.00 0.46 0.00 72 1340.3
20260510052510 7 19 4.8 11.3 0.00 0.46 0.00 61 1009.4
20260510052504 7 18 3.2 11.3 0.00 0.46 0.00 72 1340.2
20260510052010 7 19 1.6 11.3 0.00 0.46 0.00 59 1009.4
20260510052004 7 18 3.2 11.3 0.00 0.46 0.00 71 1340.0
20260510051510 8 26 1.6 6.4 0.00 0.46 0.00 59 1009.3
20260510051504 7 26 1.6 6.4 0.00 0.46 0.00 71 1339.8
20260510051010 8 26 1.6 8.0 0.00 0.46 0.00 59 1009.3
20260510051003 8 26 1.6 4.8 0.00 0.46 0.00 71 1339.8
20260510050503 8 25 3.2 8.0 0.00 0.46 0.00 71 1339.6
20260510050004 8 25 3.2 8.0 0.00 0.46 0.00 71 1339.8
20260510045510 8 25 1.6 11.3 0.00 0.46 0.00 61 1009.1
20260510045504 8 24 3.2 6.4 0.00 0.46 0.00 72 1339.6
20260510045011 8 25 4.8 11.3 0.00 0.46 0.00 61 1009.0
20260510045004 8 24 3.2 11.3 0.00 0.46 0.00 72 1339.4
20260510044510 8 27 4.8 12.9 0.00 0.46 0.00 61 1008.9
20260510044504 8 26 4.8 11.3 0.00 0.46 0.00 72 1339.2
20260510044011 8 29 4.8 12.9 0.00 0.46 0.00 62 1008.8
20260510044004 8 29 3.2 12.9 0.00 0.46 0.00 72 1339.2
20260510043510 8 30 4.8 6.4 0.00 0.46 0.00 62 1008.7
20260510043505 8 30 3.2 8.0 0.00 0.46 0.00 73 1339.1
20260510043011 8 30 4.8 14.5 0.00 0.46 0.00 62 1008.8
20260510043004 8 30 3.2 6.4 0.00 0.46 0.00 73 1338.9
20260510042510 8 26 4.8 14.5 0.00 0.46 0.00 61 1008.6
20260510042504 8 26 3.2 17.7 0.00 0.46 0.00 72 1338.9
20260510042010 8 24 4.8 11.3 0.00 0.46 0.00 61 1008.6
20260510042003 8 24 3.2 11.3 0.00 0.46 0.00 72 1338.8
20260510041510 8 25 4.8 6.4 0.00 0.46 0.00 61 1008.5
20260510041504 8 24 3.2 6.4 0.00 0.46 0.00 72 1338.6
20260510041010 9 26 1.6 6.4 0.00 0.46 0.00 61 1008.3
20260510041004 9 25 1.6 6.4 0.00 0.46 0.00 72 1338.3
20260510040504 9 25 0.0 1.6 0.00 0.46 0.00 71 1338.0
20260510040012 9 0 0.0 6.4 0.00 0.46 0.00 59 1007.9
20260510040006 9 24 0.0 6.4 0.00 0.46 0.00 71 1337.8
20260510035510 9 0 0.0 6.4 0.00 0.46 0.46 59 1007.9
20260510035504 9 24 1.6 4.8 0.00 0.46 0.46 71 1337.9
20260510035026 9 24 1.6 6.4 0.00 0.46 0.46 71 1337.9
20260510035011 9 24 1.6 6.4 0.00 0.46 0.46 59 1008.0
20260510034526 9 24 1.6 6.4 0.00 0.46 0.46 71 1337.8
20260510034510 9 24 1.6 6.4 0.00 0.46 0.46 59 1007.9
20260510034004 9 24 1.6 6.4 0.00 0.46 0.46 71 1338.0
20260510033510 9 24 1.6 6.4 0.00 0.46 0.46 59 1007.8
20260510033503 10 24 1.6 6.4 0.00 0.46 0.46 71 1337.7
20260510033004 10 24 1.6 6.4 0.00 0.46 0.46 71 1337.6
20260510032525 10 24 1.6 6.4 0.00 0.46 0.46 71 1337.7
20260510032510 10 24 1.6 6.4 0.00 0.46 0.46 59 1007.8
20260510032010 10 24 1.6 6.4 0.00 0.46 0.46 59 1007.6
20260510032003 10 24 1.6 6.4 0.00 0.46 0.46 71 1337.5
20260510031510 10 23 1.6 8.0 0.00 0.46 0.46 59 1007.3
20260510031503 10 22 1.6 6.4 0.00 0.46 0.46 71 1337.2
20260510031025 10 20 3.2 8.0 0.00 0.46 0.46 72 1336.9
20260510030511 10 20 1.6 6.4 0.00 0.46 0.46 61 1007.5
20260510030503 10 19 1.6 6.4 0.00 0.46 0.46 72 1337.4
20260510030025 10 19 1.6 6.4 0.00 0.46 0.46 71 1337.0
20260510030011 10 0 0.0 6.4 0.00 0.46 0.46 59 1007.1
20260510025510 10 0 0.0 6.4 0.00 0.46 0.46 59 1007.0
20260510025504 11 19 0.0 6.4 0.00 0.46 0.46 71 1336.8
20260510025010 11 0 0.0 4.8 0.00 0.46 0.46 59 1007.0
20260510025003 11 19 0.0 4.8 0.00 0.46 0.46 71 1336.8
20260510024510 11 0 0.0 1.6 0.00 0.46 0.46 59 1006.9
20260510024504 11 19 0.0 1.6 0.00 0.46 0.46 71 1336.6
20260510024010 11 0 0.0 1.6 0.00 0.46 0.46 59 1006.9
20260510024004 11 19 0.0 1.6 0.00 0.46 0.46 71 1336.7
20260510023525 11 19 0.0 1.6 0.00 0.46 0.46 71 1336.7
20260510023510 11 0 0.0 1.6 0.00 0.46 0.46 59 1007.0
20260510023010 11 19 1.6 6.4 0.00 0.46 0.46 59 1006.9
20260510023004 11 19 0.0 1.6 0.00 0.46 0.46 71 1336.7
20260510022525 11 19 1.6 4.8 0.00 0.46 0.46 71 1336.6
20260510022510 11 20 1.6 11.3 0.00 0.46 0.46 59 1006.9
20260510022011 11 21 1.6 11.3 0.00 0.46 0.46 59 1007.0
20260510022003 11 20 3.2 11.3 0.00 0.46 0.46 71 1336.8
20260510021524 11 23 3.2 8.0 0.00 0.46 0.46 71 1336.2
20260510021010 11 25 4.8 12.9 0.00 0.46 0.46 59 1006.3
20260510021003 11 24 4.8 17.7 0.00 0.46 0.46 71 1335.7
20260510020524 11 25 3.2 12.9 0.00 0.46 0.46 71 1335.5
20260510020510 11 26 1.6 11.3 0.00 0.46 0.46 59 1006.1
20260510020024 12 25 3.2 8.0 0.00 0.46 0.46 71 1335.5
20260510015510 12 12 4.8 14.5 0.00 0.46 0.46 59 1006.0
20260510015504 12 11 4.8 8.0 0.00 0.46 0.46 71 1335.4
20260510015010 12 2 6.4 14.5 0.00 0.46 0.46 59 1005.9
20260510015003 12 1 6.4 17.7 0.00 0.46 0.46 71 1335.4
20260510014503 12 360 6.4 12.9 0.00 0.46 0.46 71 1335.3
20260510014003 12 360 4.8 12.9 0.00 0.46 0.46 71 1335.4
20260510013503 12 360 6.4 19.3 0.00 0.46 0.46 71 1335.1
20260510013004 12 360 6.4 20.9 0.00 0.46 0.46 71 1334.7
20260510012509 12 1 6.4 12.9 0.00 0.46 0.46 62 1005.3
20260510012504 12 360 4.8 12.9 0.00 0.46 0.46 72 1334.5
20260510012010 12 1 6.4 20.9 0.00 0.46 0.46 63 1005.3
20260510012004 12 360 6.4 17.7 0.00 0.46 0.46 74 1334.4
20260510011509 12 1 6.4 20.9 0.00 0.46 0.46 65 1005.2
20260510011504 12 360 6.4 20.9 0.00 0.46 0.46 75 1334.3
20260510011010 12 1 4.8 12.9 0.00 0.46 0.46 66 1005.0
20260510011003 12 360 4.8 17.7 0.00 0.46 0.46 77 1334.2
20260510010510 13 1 1.6 4.8 0.00 0.46 0.46 69 1005.0
20260510010504 13 360 1.6 4.8 0.00 0.46 0.46 79 1334.1
20260510010011 13 0 0.0 4.8 0.00 0.46 0.46 71 1004.7
20260510010004 13 360 0.0 4.8 0.00 0.46 0.46 81 1333.8
20260510005524 13 360 0.0 1.6 0.00 0.46 0.46 81 1333.5
20260510005510 13 0 0.0 1.6 0.00 0.46 0.46 71 1004.6
20260510005024 13 360 0.0 1.6 0.00 0.46 0.46 81 1333.6
20260510005010 13 0 0.0 1.6 0.00 0.46 0.46 71 1004.5
20260510004524 13 360 1.6 1.6 0.00 0.46 0.46 81 1333.5
20260510004510 13 1 1.6 8.0 0.00 0.46 0.46 71 1004.5
20260510004010 13 1 4.8 11.3 0.00 0.46 0.46 73 1004.5
20260510004003 13 360 3.2 8.0 0.00 0.46 0.46 82 1333.4
20260510003510 13 1 6.4 24.1 0.00 0.46 0.46 73 1004.4
20260510003504 13 360 6.4 11.3 0.00 0.46 0.46 81 1333.3
20260510003024 13 360 4.8 24.1 0.00 0.46 0.46 81 1333.3
20260510002503 14 360 1.6 8.0 0.00 0.46 0.46 81 1333.1
20260510002010 14 0 0.0 4.8 0.00 0.46 0.46 71 1003.7
20260510002004 14 360 0.0 0.0 0.00 0.46 0.46 81 1332.6
20260510001510 14 0 0.0 4.8 0.00 0.46 0.46 71 1003.6
20260510001504 14 358 0.0 4.8 0.00 0.46 0.46 81 1332.4
20260510001010 14 0 0.0 4.8 0.00 0.46 0.46 71 1003.6
20260510001003 14 301 0.0 1.6 0.00 0.46 0.46 81 1332.3
20260510000503 14 310 0.0 4.8 0.00 0.46 0.46 81 1332.1
20260510000024 14 264 0.0 0.0 0.00 0.46 0.46 81 1332.1
20260509235510 14 243 1.6 6.4 0.00 0.46 0.46 71 1003.4
20260509235503 14 246 1.6 4.8 0.00 0.46 0.46 81 1332.0
20260509235010 14 236 1.6 6.4 0.00 0.46 0.46 71 1003.3
20260509235003 14 240 1.6 6.4 0.00 0.46 0.46 81 1332.0
20260509234509 14 235 1.6 8.0 0.00 0.46 0.46 71 1003.2
20260509234503 14 241 1.6 4.8 0.00 0.46 0.46 81 1331.9
20260509234003 14 243 3.2 8.0 0.00 0.46 0.46 81 1331.9
20260509233511 14 247 1.6 6.4 0.00 0.46 0.46 70 1003.2
20260509233503 14 254 3.2 6.4 0.00 0.46 0.46 80 1331.8
20260509233024 14 265 3.2 6.4 0.00 0.46 0.46 80 1331.7
20260509233010 14 264 4.8 8.0 0.00 0.46 0.46 70 1003.2
20260509232510 14 232 6.4 12.9 0.00 0.46 0.46 70 1003.2
20260509232503 14 229 6.4 8.0 0.00 0.46 0.46 80 1331.6
20260509232010 14 220 6.4 12.9 0.00 0.46 0.46 70 1003.0
20260509232004 14 220 6.4 12.9 0.00 0.46 0.46 80 1331.6
20260509231503 14 217 6.4 11.3 0.00 0.46 0.46 80 1331.7
20260509231024 14 216 4.8 12.9 0.00 0.46 0.46 80 1331.6
20260509231010 14 216 6.4 12.9 0.00 0.46 0.46 70 1003.1
20260509230503 15 215 4.8 11.3 0.00 0.46 0.46 79 1331.6
20260509230010 15 216 4.8 11.3 0.00 0.46 0.46 69 1002.9
20260509230003 15 215 4.8 11.3 0.00 0.46 0.46 79 1331.5
20260509225509 15 217 4.8 6.4 0.00 0.46 0.46 67 1002.8
20260509225503 15 217 3.2 6.4 0.00 0.46 0.46 78 1331.4
20260509225024 15 217 4.8 6.4 0.00 0.46 0.46 77 1331.2
20260509224510 15 216 4.8 11.3 0.00 0.46 0.46 66 1002.5
20260509224503 15 216 4.8 11.3 0.00 0.46 0.46 77 1331.1
20260509224009 15 216 4.8 11.3 0.00 0.46 0.46 66 1002.3
20260509224004 15 216 4.8 11.3 0.00 0.46 0.46 77 1331.0
20260509223510 15 214 4.8 11.3 0.00 0.46 0.46 66 1002.2
20260509223503 15 214 4.8 8.0 0.00 0.46 0.46 77 1330.6
20260509223024 15 207 4.8 11.3 0.00 0.46 0.46 77 1330.5
20260509223011 15 207 6.4 12.9 0.00 0.46 0.46 66 1002.2
20260509222509 15 197 6.4 12.9 0.00 0.46 0.46 66 1002.1
20260509222503 15 197 6.4 12.9 0.00 0.46 0.46 77 1330.4
20260509222010 15 201 6.4 14.5 0.00 0.46 0.46 66 1002.0
20260509222004 15 201 6.4 12.9 0.00 0.46 0.46 77 1330.4
20260509221509 15 210 6.4 14.5 0.00 0.46 0.46 66 1002.0
20260509221503 15 210 4.8 14.5 0.00 0.46 0.46 77 1330.3
20260509221010 15 217 8.0 19.3 0.00 0.46 0.46 66 1002.0
20260509221003 15 216 8.0 11.3 0.00 0.46 0.46 77 1330.4
20260509220503 15 221 8.0 17.7 0.00 0.46 0.46 77 1330.1
20260509220010 14 217 6.4 14.5 0.00 0.46 0.46 66 1001.9
20260509220003 15 216 6.4 12.9 0.00 0.46 0.46 77 1330.2
20260509215510 14 207 6.4 14.5 0.00 0.46 0.46 66 1001.9
20260509215503 14 206 6.4 14.5 0.00 0.46 0.46 77 1330.0
20260509215010 14 212 11.3 24.1 0.00 0.46 0.46 66 1001.8
20260509215003 14 210 8.0 14.5 0.00 0.46 0.46 77 1330.0
20260509214510 14 217 11.3 24.1 0.00 0.46 0.46 66 1002.0
20260509214503 14 216 11.3 20.9 0.00 0.46 0.46 77 1330.1
20260509214010 14 217 8.0 17.7 0.00 0.46 0.46 67 1002.0
20260509214003 14 216 8.0 19.3 0.00 0.46 0.46 78 1330.1
20260509213509 14 219 6.4 14.5 0.00 0.46 0.46 69 1002.0
20260509213504 14 218 6.4 14.5 0.00 0.46 0.46 79 1330.2
20260509213025 13 219 6.4 12.9 0.03 0.46 0.46 80 1330.6
20260509213010 13 222 6.4 12.9 0.03 0.46 0.46 70 1002.2
20260509212510 13 278 4.8 12.9 0.05 0.46 0.46 71 1002.2
20260509212503 13 276 4.8 14.5 0.05 0.46 0.46 81 1330.4
20260509212024 13 340 3.2 8.0 0.05 0.46 0.46 82 1330.5
20260509212010 13 338 4.8 8.0 0.05 0.46 0.46 73 1002.2
20260509211510 12 343 4.8 11.3 0.38 0.46 0.46 73 1002.3
20260509211503 12 344 3.2 8.0 0.38 0.46 0.46 82 1330.7
20260509211003 12 349 3.2 11.3 0.46 0.46 0.46 82 1330.6
20260509210524 12 346 3.2 12.9 0.46 0.46 0.46 83 1330.6
20260509210510 12 349 4.8 12.9 0.46 0.46 0.46 74 1002.3
20260509210024 12 333 3.2 11.3 0.46 0.46 0.46 83 1330.7
20260509210010 12 340 4.8 12.9 0.46 0.46 0.46 74 1002.4
20260509205509 12 344 4.8 12.9 0.46 0.46 0.46 75 1002.4
20260509205503 12 348 4.8 14.5 0.46 0.46 0.46 84 1330.7
20260509205024 12 336 4.8 11.3 0.46 0.46 0.46 84 1330.7
20260509204504 11 316 3.2 12.9 0.46 0.46 0.46 85 1330.8
20260509204009 11 354 4.8 12.9 0.46 0.46 0.46 75 1002.6
20260509204003 11 350 3.2 6.4 0.46 0.46 0.46 84 1330.8
20260509203524 11 299 6.4 12.9 0.46 0.46 0.46 83 1330.8
20260509203510 11 307 6.4 20.9 0.46 0.46 0.46 74 1002.4
20260509203010 12 307 11.3 25.7 0.43 0.43 0.43 73 1002.7
20260509203003 12 308 9.7 20.9 0.43 0.43 0.43 82 1331.1
20260509202524 13 349 12.9 30.6 0.43 0.43 0.43 81 1331.2
20260509202510 13 350 14.5 33.8 0.43 0.43 0.43 71 1002.9
20260509202011 14 359 14.5 45.1 0.38 0.38 0.38 70 1002.8
20260509202003 14 360 16.1 33.8 0.41 0.41 0.41 79 1331.1
20260509201503 16 341 12.9 45.1 0.08 0.08 0.08 78 1331.5
20260509201003 16 282 9.7 24.1 0.00 0.00 0.00 77 1330.6
20260509200503 16 254 9.7 30.6 0.00 0.00 0.00 75 1329.9
20260509200010 16 225 8.0 24.1 0.00 0.00 0.00 63 1001.7
20260509200004 16 221 9.7 24.1 0.00 0.00 0.00 74 1329.9
20260509195525 16 230 8.0 20.9 0.00 0.00 0.00 74 1329.8
20260509195509 16 231 8.0 24.1 0.00 0.00 0.00 63 1001.7
20260509195024 16 326 8.0 24.1 0.00 0.00 0.00 74 1329.7
20260509195009 16 324 8.0 38.6 0.00 0.00 0.00 63 1001.6
20260509194510 16 268 8.0 38.6 0.00 0.00 0.00 63 1001.7
20260509194503 16 252 8.0 32.2 0.00 0.00 0.00 74 1329.7
20260509194011 16 278 8.0 32.2 0.00 0.00 0.00 63 1001.6
20260509194003 16 279 8.0 25.7 0.00 0.00 0.00 74 1329.6
20260509193509 16 262 12.9 32.2 0.00 0.00 0.00 63 1001.7
20260509193503 16 264 11.3 32.2 0.00 0.00 0.00 74 1329.7
20260509193009 16 268 17.7 33.8 0.00 0.00 0.00 65 1001.8
20260509193004 16 275 16.1 27.4 0.00 0.00 0.00 74 1329.9
20260509192510 16 351 19.3 38.6 0.00 0.00 0.00 63 1001.6
20260509192503 16 353 19.3 32.2 0.00 0.00 0.00 74 1329.7
20260509192025 16 358 17.7 46.7 0.00 0.00 0.00 73 1329.6
20260509191524 16 360 11.3 33.8 0.00 0.00 0.00 73 1329.8
20260509191509 16 1 11.3 33.8 0.00 0.00 0.00 62 1001.7
20260509191003 16 360 11.3 19.3 0.00 0.00 0.00 73 1330.1